This is the latest recevied weather packets stored in our database for station/object K8RLH. If no packets are shown the sender has not sent any weather packets the latest 10 day(s).
| Time | Temp. | Humidity | Pressure | Rain* | Wind** | Luminosity | Snow |
|---|---|---|---|---|---|---|---|
| 1777540878 | 16.11° C | 92% | 1012.2 hPa | 10.67 mm | - | 0 W/m² | - |
| 1777540576 | 16.67° C | 91% | 1012.4 hPa | 13.21 mm | - | 0 W/m² | - |
| 1777540273 | 17.22° C | 87% | 1012.4 hPa | 3.05 mm | - | 0 W/m² | - |
| 1777539968 | 18.89° C | 83% | 1012.3 hPa | 0 mm | - | 0 W/m² | - |
| 1777539665 | 18.89° C | 89% | 1012 hPa | 0 mm | - | 0 W/m² | - |
| 1777539361 | 18.89° C | 89% | 1010.3 hPa | 0 mm | - | 0 W/m² | - |
| 1777539057 | 18.89° C | 90% | 1009.9 hPa | 0 mm | - | 0 W/m² | - |
| 1777538753 | 18.89° C | 90% | 1009.8 hPa | 0 mm | - | 0 W/m² | - |
| 1777538449 | 18.89° C | 90% | 1009.8 hPa | 0 mm | - | 0 W/m² | - |
| 1777538144 | 18.33° C | 90% | 1010 hPa | 0 mm | - | 0 W/m² | - |
| 1777537840 | 18.33° C | 90% | 1009.9 hPa | 0 mm | - | 0 W/m² | - |
| 1777537537 | 18.89° C | 90% | 1010.1 hPa | 0 mm | - | 0 W/m² | - |
| 1777537233 | 18.89° C | 90% | 1010.1 hPa | 0 mm | - | 0 W/m² | - |
| 1777536929 | 18.89° C | 89% | 1010.3 hPa | 0 mm | - | 0 W/m² | - |
| 1777536627 | 18.89° C | 89% | 1010.3 hPa | 0 mm | - | 0 W/m² | - |
| 1777536324 | 18.89° C | 88% | 1010.4 hPa | 0 mm | - | 0 W/m² | - |
| 1777536021 | 18.89° C | 88% | 1010.2 hPa | 0 mm | - | 0 W/m² | - |
| 1777535721 | 18.89° C | 87% | 1010.4 hPa | 0 mm | - | 0 W/m² | - |
| 1777535419 | 18.89° C | 87% | 1010.4 hPa | 0 mm | - | 0 W/m² | - |
| 1777535116 | 19.44° C | 86% | 1010.3 hPa | 0 mm | - | 0 W/m² | - |
| 1777534812 | 19.44° C | 86% | 1010.5 hPa | 0 mm | - | 0 W/m² | - |
| 1777534509 | 19.44° C | 85% | 1010 hPa | 0 mm | - | 0 W/m² | - |
| 1777534206 | 19.44° C | 85% | 1010.2 hPa | 0 mm | - | 0 W/m² | - |
| 1777533903 | 19.44° C | 84% | 1010.2 hPa | 0 mm | - | 0 W/m² | - |
| 1777533601 | 20° C | 84% | 1010.3 hPa | 0 mm | - | 0 W/m² | - |
* Rain latest hour (hover to see other rain measurements)
** Current wind speed in m/s (hover to see current wind gust speed)